Theta_e
322 327 328 334 332 344 349 349 349 351 355 352 345 341 341 342 347 350 354 357 354 351 350 346 349 346 342 340 342 341 339 335 335 337 335 336 338 335 335 338 338 336 337
321 322 326 334 341 344 345 346 349 352 352 347 344 347 345 340 345 351 354 357 355 352 351 348 346 345 344 342 344 340 333 333 338 333 331 324 327 332 335 334 336 334 336
317 321 326 332 340 340 343 345 346 347 349 345 345 347 347 353 354 351 352 354 353 352 349 348 346 346 343 340 342 339 336 330 339 338 330 321 318 324 331 331 332 334 334
317 317 322 327 334 337 341 347 346 345 345 349 346 344 340 339 347 351 351 351 352 351 349 347 347 349 342 343 339 339 335 337 333 334 335 333 329 320 318 328 330 333 333
317 316 317 321 327 330 331 337 344 346 345 346 347 342 345 346 354 353 353 349 352 349 347 346 346 345 343 343 338 339 340 340 335 331 331 330 329 328 322 317 322 329 331
316 318 320 320 320 324 328 335 337 338 345 347 351 349 348 347 346 349 346 344 345 343 344 344 344 344 344 345 342 343 340 337 335 333 332 328 324 323 322 320 321 321 325
317 318 319 319 320 321 322 325 336 338 346 344 349 346 351 348 355 346 343 341 340 340 341 342 343 344 345 346 344 341 339 338 336 334 331 329 330 329 327 324 321 319 324
315 318 319 322 320 323 326 330 334 339 343 342 343 348 348 350 349 345 342 341 339 340 345 344 346 346 345 343 343 340 340 339 336 334 333 332 332 330 327 325 322 317 319
314 318 321 321 322 325 331 332 334 336 339 343 346 349 351 352 348 347 345 344 344 344 345 347 346 344 343 341 342 340 337 337 336 334 334 333 332 330 330 327 326 321 313
316 320 324 328 332 336 333 335 338 342 347 348 350 350 353 354 351 350 347 346 347 346 347 345 344 342 341 341 340 337 337 335 335 334 333 330 330 330 331 329 328 326 322
314 320 327 331 332 339 342 345 344 346 346 346 348 350 351 351 351 348 346 346 347 345 344 342 339 337 338 340 338 336 336 333 333 332 331 329 329 331 330 330 328 326 325
325 326 329 335 335 335 340 344 345 342 344 348 349 349 347 347 345 343 342 344 343 343 341 340 338 338 336 336 336 334 334 332 331 330 326 323 326 329 330 330 327 327 327
327 326 328 331 334 338 338 339 342 343 344 343 343 342 340 340 341 341 342 343 341 342 338 337 335 334 335 333 336 336 334 333 331 328 324 325 326 327 329 329 327 328 328
325 327 330 334 336 336 337 339 339 341 340 340 340 339 341 342 342 342 343 340 339 337 337 336 334 334 333 334 335 335 334 332 329 327 326 327 328 329 328 328 327 328 326
321 326 330 334 334 333 335 337 338 339 339 338 339 340 342 342 341 340 339 337 337 333 334 333 333 332 330 328 334 335 333 330 326 326 326 329 328 324 327 330 329 328 326
312 326 328 331 329 332 332 334 335 335 339 337 338 339 338 338 338 338 332 331 334 334 332 332 332 328 326 306 311 328 329 329 327 326 325 328 320 317 316 318 320 325 326
309 323 327 330 333 332 332 331 335 336 335 334 333 333 333 331 331 333 332 332 334 335 333 333 333 331 324 306 308 318 331 327 326 327 327 329 328 325 326 312 314 314 315
309 321 330 332 334 333 331 332 333 332 331 330 329 331 331 331 331 331 331 331 335 336 335 334 334 329 320 307 307 309 330 327 325 326 327 329 329 326 328 329 328 328 325
323 325 332 333 334 333 330 331 329 329 328 328 330 330 330 330 330 331 331 333 335 334 334 334 333 329 323 304 306 318 329 324 323 325 327 328 326 310 309 328 325 323 320
321 327 331 333 336 331 329 329 328 328 327 329 329 331 330 329 330 332 331 334 334 334 333 333 333 318 324 302 307 321 327 323 322 322 323 306 320 303 305 326 324 321 320
323 325 330 330 334 333 331 329 328 327 330 331 330 331 329 331 332 332 334 335 333 333 332 332 330 328 325 317 307 310 323 322 321 320 321 317 299 302 303 313 325 320 320
323 327 328 332 334 331 330 328 329 331 331 330 329 330 331 327 332 332 331 335 335 332 330 328 326 326 324 311 305 302 310 314 322 320 319 308 298 299 302 311 300 303 312
325 329 329 333 331 330 330 331 331 332 331 331 330 330 332 328 333 329 330 334 333 331 330 329 325 323 324 318 299 300 302 307 321 319 304 297 296 297 301 299 301 308 318
323 329 332 328 327 329 332 332 332 332 331 330 329 331 329 331 331 331 335 332 331 331 330 328 325 323 323 322 318 318 315 305 307 305 309 305 306 306 308 310 315 321 319
326 330 328 326 328 328 331 331 331 331 329 330 329 329 329 331 328 319 318 326 314 318 331 329 326 322 321 321 312 318 320 319 310 314 317 316 316 316 319 320 320 320 320
326 327 328 327 326 327 331 331 332 331 330 330 327 327 329 330 331 326 319 297 297 295 297 309 322 325 307 297 298 300 300 300 301 316 315 315 316 318 320 320 319 319 317
Wind_Speed
22 19 20 13 18 10 10 10 9 7 4 3 4 5 7 6 6 7 7 7 10 12 12 10 7 8 8 7 6 5 6 4 4 4 2 3 8 8 8 3 3 4 5
18 21 17 12 10 12 9 9 9 9 7 6 6 4 6 8 8 6 6 7 9 10 10 10 8 10 6 7 5 6 3 3 5 3 2 4 4 4 3 2 4 4 4
20 18 14 9 6 8 10 11 11 10 9 11 6 5 6 4 3 6 5 5 7 9 10 10 9 8 8 6 5 6 7 6 4 5 3 2 1 2 0 3 3 3 2
17 18 16 12 8 5 6 7 10 11 11 11 9 10 9 7 5 5 6 6 6 8 11 11 11 5 8 6 7 7 6 6 4 2 4 4 1 1 2 2 3 3 3
18 22 19 11 9 9 8 9 10 12 13 12 13 9 9 6 4 4 9 8 5 6 8 7 8 6 6 6 9 7 8 4 3 5 3 3 4 4 3 2 1 1 2
24 19 18 17 14 12 12 9 13 13 13 11 12 10 10 8 6 6 8 5 5 4 5 6 5 6 6 5 8 7 6 5 6 4 1 4 3 3 2 2 2 2 2
16 16 21 20 19 20 18 17 13 12 12 13 11 13 9 12 6 12 9 9 6 5 8 9 8 6 7 6 6 6 6 5 3 3 2 1 3 3 1 3 2 2 2
14 16 11 11 15 13 13 10 8 10 11 11 11 10 11 6 7 10 9 7 7 8 10 10 10 9 7 6 6 5 4 4 4 3 2 3 2 1 2 4 3 2 2
14 10 6 10 12 9 10 10 9 9 10 11 10 10 10 9 11 12 12 10 11 9 11 11 9 8 9 7 6 3 4 6 5 4 3 2 1 1 3 4 4 4 2
9 9 8 7 6 6 8 10 10 11 11 11 10 10 10 8 13 11 13 12 10 11 11 9 8 7 6 7 6 5 6 6 4 4 5 3 1 2 3 3 4 3 2
11 11 7 6 8 8 8 7 8 11 11 11 11 11 9 10 12 12 10 9 10 11 10 9 6 6 6 6 6 3 5 5 6 5 5 4 2 4 3 2 3 4 3
1 8 7 5 4 9 11 8 9 9 9 10 11 12 12 11 11 12 11 10 10 8 8 8 9 8 5 6 5 4 5 6 7 7 6 4 3 5 5 4 5 3 4
10 7 10 11 13 13 13 12 13 13 12 12 11 11 9 10 10 10 10 9 8 6 7 6 5 5 6 6 6 5 4 5 6 7 6 5 5 6 5 4 5 4 4
9 5 3 10 10 14 15 14 15 14 12 12 12 12 11 11 10 10 9 8 6 6 6 6 6 7 5 5 3 4 1 6 6 5 4 3 6 6 7 6 6 5 5
5 7 7 8 6 16 13 17 17 15 16 14 13 12 11 11 10 9 7 7 7 6 6 7 6 6 6 6 5 6 6 6 5 4 4 5 4 9 4 4 6 6 7
9 3 7 3 11 14 13 14 15 14 15 15 14 12 11 10 8 7 7 7 6 8 8 7 6 10 7 7 8 7 5 6 6 5 4 5 6 7 9 7 5 8 11
14 6 6 6 6 8 13 10 15 14 13 13 12 11 10 9 6 8 6 7 7 7 6 6 7 9 6 8 7 6 5 6 5 4 4 4 4 7 7 9 12 9 13
11 3 7 6 3 4 10 13 14 13 13 13 13 12 11 9 8 6 8 6 6 7 5 7 9 8 6 6 5 3 7 6 3 1 2 4 5 5 6 6 9 8 9
11 12 11 8 5 4 12 14 14 13 13 13 15 13 12 8 8 6 8 6 6 6 5 6 10 9 6 4 3 3 6 6 4 4 4 5 6 4 8 8 10 9 7
9 9 9 11 10 7 12 13 13 13 13 13 16 15 13 10 7 10 8 5 6 5 5 8 9 10 7 3 4 4 5 5 3 3 4 4 7 8 7 10 10 9 8
8 11 13 13 10 6 12 13 12 11 15 13 10 9 12 10 9 9 7 5 5 7 9 10 8 8 7 4 5 7 5 4 4 4 3 5 9 9 9 10 9 11 10
8 11 17 16 12 10 12 12 11 14 13 10 10 11 13 10 10 9 5 4 4 9 9 9 7 6 6 6 6 7 7 6 5 5 4 5 8 11 12 11 15 16 11
6 8 17 15 8 15 12 15 14 13 11 10 8 9 6 9 12 8 5 5 5 6 7 7 8 5 4 5 8 9 8 5 5 5 8 10 12 13 12 14 14 12 8
10 10 13 13 15 14 16 16 13 11 12 7 10 10 8 9 7 6 5 4 5 6 6 7 7 6 4 6 5 5 7 12 10 11 6 8 9 9 9 7 6 6 7
6 15 11 14 16 13 17 15 13 11 10 11 12 10 7 8 9 8 5 5 4 2 5 7 7 8 5 4 5 7 7 7 7 8 6 5 6 7 6 4 6 5 7
5 7 11 17 15 13 17 15 13 9 12 11 10 8 9 8 8 8 8 14 8 7 10 9 6 8 11 11 12 16 18 15 10 6 6 6 5 4 4 6 7 6 7
Wind_Direction
259 256 242 228 220 169 163 161 168 188 186 221 217 231 224 225 222 209 206 186 176 176 182 197 201 209 203 208 188 174 177 193 230 246 233 255 224 210 221 210 204 200 214
252 242 255 223 192 163 166 169 179 181 186 208 227 234 223 222 211 185 183 179 165 174 175 187 215 197 214 193 199 168 161 204 219 179 220 259 256 213 204 218 207 212 222
255 262 263 234 172 181 181 181 186 189 195 214 231 220 244 258 257 167 169 159 155 164 177 190 212 190 204 192 176 167 181 205 194 199 207 264 235 78 139 264 228 232 242
242 263 267 255 236 202 201 185 184 194 208 206 218 209 218 217 217 165 155 150 166 180 181 182 208 211 184 205 174 174 195 222 182 193 228 254 25 293 218 233 195 204 252
240 237 250 264 268 243 234 222 198 194 203 199 213 212 220 203 198 146 134 150 157 168 169 167 196 174 186 210 172 182 197 169 203 199 182 188 213 193 223 267 209 137 257
241 236 225 234 241 248 246 223 204 206 192 197 192 204 208 216 180 148 131 141 127 134 147 176 193 186 192 220 172 168 156 192 216 267 212 167 174 160 185 249 277 225 205
234 228 225 221 222 226 234 233 200 191 181 185 183 204 233 199 195 139 145 154 149 168 188 190 198 192 193 156 130 153 182 189 196 214 234 247 140 117 157 234 217 205 118
266 236 231 226 220 215 215 207 178 169 167 182 194 191 210 181 137 139 143 156 166 189 182 191 193 186 160 167 158 157 166 166 188 206 177 77 83 65 207 227 190 186 169
255 256 229 235 237 239 185 177 170 166 182 186 180 180 189 188 150 149 158 171 175 179 176 189 166 174 166 153 133 157 193 183 159 145 135 124 111 10 286 204 183 196 163
227 238 243 251 244 220 180 175 173 161 162 167 173 178 173 169 153 157 165 163 158 169 164 162 162 158 151 133 148 216 178 141 146 153 165 154 175 262 258 265 179 180 183
231 232 245 240 226 133 117 132 160 152 152 159 168 153 167 131 132 139 134 136 144 145 155 156 144 156 152 178 176 144 136 150 161 184 127 142 168 236 239 212 185 189 164
77 265 266 274 165 179 144 137 143 129 130 130 129 128 123 126 120 117 130 136 134 147 156 153 172 180 156 163 142 205 215 191 188 137 147 191 239 244 222 198 218 187 148
161 211 219 220 222 164 153 132 124 112 116 122 114 117 119 123 121 123 128 134 148 167 149 120 154 153 119 151 192 197 213 172 194 152 166 195 232 264 217 186 202 148 158
70 160 183 228 238 129 127 125 125 124 121 127 134 134 133 135 133 135 144 138 135 127 132 168 118 122 142 181 146 122 108 105 134 140 160 234 234 234 207 188 186 152 150
88 169 196 228 83 114 128 132 138 143 144 149 137 133 134 137 136 139 131 134 141 163 136 100 106 118 72 46 49 78 66 116 124 140 190 254 67 70 85 182 156 156 127
345 126 206 162 90 138 129 134 142 152 135 129 133 139 146 142 130 132 145 144 111 94 102 107 102 83 80 64 58 103 135 151 162 159 200 165 131 93 81 69 155 150 133
298 132 208 173 179 104 144 146 131 129 129 131 135 140 142 136 123 121 144 115 114 104 115 112 98 97 99 71 66 43 118 109 104 145 180 162 101 148 106 82 97 89 116
291 128 167 183 212 133 127 123 123 130 138 148 155 128 118 115 120 148 112 117 114 105 104 99 105 102 88 78 59 8 116 109 105 89 109 107 95 66 118 136 111 88 112
358 330 157 179 213 141 128 131 138 153 155 158 137 133 132 131 141 125 126 127 114 129 146 122 109 108 105 78 38 130 126 112 101 81 38 37 101 97 29 112 101 92 79
332 327 190 173 184 155 141 144 156 155 163 129 131 144 151 148 138 130 131 122 134 158 135 104 105 105 116 90 64 99 106 112 106 82 76 13 121 89 44 121 118 107 109
312 309 184 186 173 132 150 160 157 158 110 119 128 136 127 146 121 136 130 138 183 124 119 103 107 116 118 98 114 119 120 133 115 114 83 75 83 76 98 115 118 115 115
316 289 182 176 171 159 154 157 119 108 118 137 146 127 137 147 138 136 132 164 147 111 124 114 101 102 93 87 74 69 90 149 131 120 105 96 91 97 93 96 111 101 108
283 230 179 162 172 145 176 118 117 126 132 129 114 118 98 128 125 139 156 135 144 148 149 135 129 122 115 91 70 63 76 129 124 107 103 112 99 100 94 116 114 112 115
297 207 178 169 149 157 126 127 137 146 131 123 120 110 102 113 125 161 142 179 170 165 145 135 132 121 130 130 140 124 91 80 87 102 97 93 91 88 117 122 116 123 130
254 209 174 157 141 148 125 133 147 157 133 128 114 118 117 106 84 64 6 77 58 306 148 137 144 137 152 143 111 130 118 109 112 113 103 98 114 131 148 137 126 129 133
234 270 201 134 136 155 140 147 144 135 129 131 137 151 140 151 132 119 89 39 39 32 72 141 142 131 120 103 106 105 111 126 141 105 108 115 126 129 146 127 135 147 152